Location: Bli��� Lhota
(48.7570°N, 14.0120°E)
Time: 05:50:28
(UTC+00:00)

DMSP B5D2-2 - Pass Details

Date: 18 September 2020
Orbit: 790 x 805 km, 98.3° (Epoch: 22 October)

Event Time Altitude Azimuth Distance (km) Brightness Sun altitude
Rises 18:38:39 0° 17° (NNE) 3,333 7.4 -15.2°
Reaches altitude 10° 18:41:03 10° 22° (NNE) 2,398 6.6 -15.5°
Maximum altitude 18:46:16 55° 100° (E) 962 4.1 -16.3°
Drops below altitude 10° 18:51:26 10° 178° (S) 2,379 6.3 -17.1°
Sets 18:53:48 0° 183° (S) 3,304 7.1 -17.5°
